Regional Weather Roundup
Issued by NWS

Home | Current Version | Previous Version | Graphics & Text | Print | Product List | Glossary On
Versions: 1 2 3 4 5 6 7 8 9 10 11 12 13 14 15 16 17 18 19 20 21 22 23 24 25 26 27 28 29 30 31 32 33 34 35 36 37 38 39 40 41 42 43 44 45 46 47 48 49 50
581
ASUS43 KLOT 082112
RWRIL

ILLINOIS REGIONAL WEATHER ROUNDUP
NATIONAL WEATHER SERVICE CHICAGO/ROMEOVILLE IL
300 PM CST THU DEC 08 2016

NOTE: "FAIR" INDICATES FEW OR NO CLOUDS BELOW 12,000 FEET WITH NO
SIGNIFICANT WEATHER AND/OR OBSTRUCTIONS TO VISIBILITY.

* THESE STATIONS ARE NOT UNDER NWS QUALITY CONTROL. THEY ALSO MAY NOT
  REPORT WEATHER SUCH AS PRECIPITATION OR FOG.

ILZ001-002-007-009-015-016-024-082200-
NORTHWEST ILLINOIS

CITY           SKY/WX    TMP DP  RH WIND       PRES   REMARKS
MOLINE         CLOUDY    22  12  65 W21G26    30.44R WCI   6
STERLING*      FLURRIES  22  16  78 W17       30.39R WCI   8
SAVANNA*       CLOUDY    23  15  71 W17G24    30.40R WCI   9
$$

ILZ003-004-008-010-011-017-018-082200-
NORTH CENTRAL ILLINOIS

CITY           SKY/WX    TMP DP  RH WIND       PRES   REMARKS
ROCKFORD       FLURRIES  22  14  71 W15       30.37R WCI   9
FREEPORT*      CLOUDY    21  15  77 W14G20    30.37R WCI   8
ROCHELLE*      CLOUDY    21  16  79 W16       30.37R WCI   7
DE KALB*       CLOUDY    20  15  79 W16G22    30.34R WCI   6
$$

ILZ005-006-012>014-019>023-082200-
NORTHEAST ILLINOIS

CITY           SKY/WX    TMP DP  RH WIND       PRES   REMARKS
CHICAGO-OHARE  FLURRIES  21  13  71 W14G25    30.32R WCI   8
CHICAGO-MIDWAY FLURRIES  21  11  65 W20G25    30.33R WCI   6
AURORA         CLOUDY    21  15  78 W17       30.36R WCI   7
LANSING*       FLURRIES  20  15  80 W15G30    30.34R WCI   6
JOLIET*        FLURRIES  22  15  75 W12G23    30.37R WCI  10
WAUKEGAN       PTSUNNY   23  14  68 W13G24    30.27R WCI  11
DUPAGE AIRPORT CLOUDY    21  13  71 W17       30.33R WCI   7
KANKAKEE*      CLOUDY    21  13  72 W18G28    30.37S WCI   6
WHEELING       CLOUDY    22  13  68 W16G23    30.33R WCI   8
MORRIS*        FLURRIES  21  15  78 W20G25    30.37R WCI   6
ROMEOVILLE*    FLURRIES  20  17  86 W15       30.36R WCI   6
NORTHERLY ISL    N/A     22  14  71 SW14        N/A  WCI   9
$$

LMZ740>746-082200-
SOUTHERN LAKE MICHIGAN

STATION/POSITION SKY/WX   TEMP    WIND        PRES    VSBY  WAVE
                          AIR SEA DIR/SP/G                  HT/PER
                          (F)     (DEG/KT/KT) (MB)    (MI)  (FT/S)
HARRISON CRIB              22     270/ 27/ 31   N/A
BURNHAM HARBOR             22     290/ 19/ 22   N/A
CALUMET HARBOR             20     250/ 10/ 19 1026.2R
BURNS HARBOR               22     270/ 23/ 30 1026.8R
$$

ILZ025>027-034>036-040-047-049-050-058-095>099-082200-
WEST-CENTRAL ILLINOIS

CITY           SKY/WX    TMP DP  RH WIND       PRES   REMARKS
QUINCY         PTSUNNY   25  12  58 NW18      30.49R WCI  11
GALESBURG*     FLURRIES  20  13  73 W17G24    30.45R WCI   6
MACOMB*        CLOUDY    22  12  67 W20       30.50R WCI   6
JACKSONVILLE*  CLOUDY    24  13  60 W17       30.48R WCI  11
PITTSFIELD*    PTSUNNY   26  13  58 NW10      30.50R WCI  16
$$

ILZ028>032-037-038-041>044-048-051>054-059>061-082200-
CENTRAL ILLINOIS

CITY           SKY/WX    TMP DP  RH WIND       PRES   REMARKS
PONTIAC        MIX PCPN  22  15  75 W23       30.40R WCI   6
BLOOMINGTON    CLOUDY    20  13  74 W22       30.41R WCI   3
DECATUR        CLOUDY    22  11  62 NW16G23   30.44R WCI   8
PEORIA         CLOUDY    20  11  68 W14G23    30.45R WCI   7
LACON*         CLOUDY    22  13  69 W15G21    30.43R WCI   8
LINCOLN*       CLOUDY    23  13  65 NW9G21    30.46R WCI  13
SPRINGFIELD    CLOUDY    25  14  63 W12       30.47R WCI  14
TAYLORVILLE    CLOUDY    24  14  66 NW16      30.47R WCI  10
$$

ILZ033-039-045-046-055>057-062-063-082200-
EAST-CENTRAL ILLINOIS

CITY           SKY/WX    TMP DP  RH WIND       PRES   REMARKS
CHAMPAIGN      CLOUDY    22  12  65 W20       30.42R WCI   7
RANTOUL*       CLOUDY    24  15  71 W16       30.40R WCI  10
MATTOON        CLOUDY    23  12  62 NW20      30.43R WCI   8
PARIS*         CLOUDY    23  16  74 W14       30.42R WCI  11
$$

ILZ079-100>102-082200-
SOUTHWEST ILLINOIS

CITY           SKY/WX    TMP DP  RH WIND       PRES   REMARKS
ALTON          MOSUNNY   27  14  59 W16       30.49R WCI  14
BELLEVILLE     SUNNY     30  12  48 NW14      30.48R WCI  19
CAHOKIA*       SUNNY     30  13  49 NW15      30.50R WCI  19
SPARTA*        SUNNY     30  13  49 W9        30.49S WCI  21
$$

ILZ064>066-069>071-074>076-080>082-084>086-088>090-092>094-082200-
SOUTH-CENTRAL ILLINOIS

CITY           SKY/WX    TMP DP  RH WIND       PRES   REMARKS
CARBONDALE     SUNNY     32  15  49 NW10      30.49R WCI  24
CAIRO*         SUNNY     35  15  43 W9        30.48R WCI  27
EFFINGHAM*     CLOUDY    26  17  67 W16G23    30.47R WCI  14
MARION         MOSUNNY   32  16  51 NW7       30.48S WCI  26
CENTRALIA*     PTSUNNY   30  18  59 W14G20    30.46S WCI  20
SALEM*         MOSUNNY   30  15  54 NW13      30.46S WCI  20
METROPOLIS*    SUNNY     35  13  41 NW14      30.47S WCI  25
$$

ILZ067-068-072-073-078-083-087-091-082200-
SOUTHEAST ILLINOIS

CITY           SKY/WX    TMP DP  RH WIND       PRES   REMARKS
LAWRENCEVILLE  PTSUNNY   28  15  58 W18       30.45R WCI  15
FLORA*         PTSUNNY   29  16  56 W16       30.47R WCI  18
FAIRFIELD*     MOSUNNY   29  15  56 NW6       30.46R WCI  22
HARRISBURG*    SUNNY     32  17  53 NW13      30.47S WCI  22
ROBINSON*      CLOUDY    25  15  66 W18       30.46R WCI  11
CARMI*         PTSUNNY   30  18  60 W13       30.46R WCI  20
$$

ABBREVIATIONS USED IN REMARKS
   TC - TEMPERATURE IN CELSIUS
  WCI - WIND CHILL INDEX
   HX - HEAT INDEX
  VSB - VISIBILITY
$$





USA.gov is the U.S. government's official web portal to all federal, state and local government web resources and services.